Wind_Speed
8 9 10 10 9 13 12 9 8 8 8 8 8 8 8 9 9 9 8 9 9 9 9 8 7 7 6 6 6 5 4 2 2 2 3 5 6 6 7 7 8 9 9 10 10 10 10 10 10
7 7 8 8 8 12 9 8 7 6 6 7 7 7 8 8 8 7 7 7 7 8 7 7 7 7 7 6 6 5 5 4 3 3 3 3 4 4 5 6 7 8 8 9 9 10 10 10 10
5 6 7 7 10 10 7 6 5 5 4 4 5 5 5 6 6 6 5 5 5 5 5 5 5 6 6 6 6 5 5 4 4 4 4 4 4 4 5 6 6 7 8 9 9 10 10 11 11
3 4 5 6 9 9 7 6 5 4 3 2 2 3 3 4 4 4 4 4 3 3 3 3 3 3 4 4 4 4 4 4 4 4 4 5 5 5 6 6 7 7 8 9 9 10 11 11 12
2 1 3 5 7 7 7 6 5 5 4 3 3 2 2 2 2 2 3 3 3 3 3 3 3 3 3 3 3 3 4 4 4 4 5 5 5 6 7 7 8 8 9 10 11 11 12 12 13
2 1 3 5 6 6 7 7 7 6 6 6 5 4 4 3 3 3 3 4 4 4 4 4 4 4 4 5 5 5 5 5 6 6 6 6 7 7 8 9 9 10 11 12 12 13 14 15 15
4 4 5 6 7 7 8 8 8 8 7 8 7 6 6 5 5 5 5 6 6 6 6 6 6 6 6 6 6 6 7 7 7 8 8 9 9 9 10 11 11 12 13 13 14 15 16 17 18
7 7 8 9 10 10 10 10 10 10 9 10 9 8 8 7 7 7 7 8 8 8 8 8 8 8 8 8 8 8 8 8 9 9 10 10 10 11 11 12 13 14 15 15 16 17 18 19 20
10 10 11 12 13 13 13 13 12 12 11 12 11 10 10 10 9 9 9 10 10 10 10 11 10 10 10 10 10 9 10 10 10 10 11 12 12 12 12 13 14 15 16 17 18 19 20 21 21
14 14 14 15 16 16 15 15 14 14 13 13 13 13 12 12 12 12 12 12 12 13 13 13 13 13 12 12 11 11 11 11 12 12 13 14 14 14 14 14 16 17 18 19 20 21 22 23 24
17 17 18 18 18 18 18 17 16 16 14 14 15 15 14 14 14 14 14 14 14 15 15 15 15 15 14 14 14 13 13 13 14 14 15 15 16 16 16 16 17 19 20 21 22 23 24 25 26
20 20 21 21 21 21 20 19 19 17 16 16 16 17 17 17 17 16 16 16 16 16 16 16 16 16 16 16 15 15 15 15 16 16 17 17 18 18 18 19 20 21 22 23 24 25 26 27 29
22 23 24 24 23 23 23 22 20 18 18 18 18 18 19 19 19 19 19 19 18 18 18 18 18 17 17 17 17 17 17 18 18 18 19 19 20 21 21 22 22 23 24 25 26 27 29 30 31
25 26 26 26 26 26 26 24 22 20 21 21 20 20 21 21 21 21 21 20 20 20 19 19 19 19 19 19 19 19 19 19 19 20 20 21 22 23 23 24 25 25 26 28 29 30 32 33 34
28 28 28 28 29 28 29 26 24 23 24 24 23 22 22 22 22 22 22 22 22 21 21 21 21 21 21 21 21 21 21 21 21 21 22 23 24 25 25 26 28 29 30 31 32 34 35 36 38
30 31 31 31 31 30 31 28 27 25 26 26 25 24 24 24 24 23 23 23 23 23 23 23 23 23 23 23 22 22 22 22 22 23 24 24 25 27 28 29 31 32 33 35 36 37 39 40 42
32 33 33 34 32 32 33 31 29 28 29 28 27 26 26 26 25 25 25 25 25 26 26 26 26 25 25 24 24 23 23 24 24 25 26 27 28 30 31 32 34 35 37 38 40 41 43 44 46
35 36 34 35 35 32 33 34 33 30 31 29 28 28 28 28 28 28 28 28 28 28 28 28 28 27 26 26 25 25 25 26 27 28 29 30 31 32 34 35 37 38 40 42 43 45 47 49 51
37 37 34 34 37 35 35 35 35 33 32 31 30 30 30 30 30 31 31 31 31 30 30 30 29 28 28 27 27 27 28 29 29 30 32 33 34 36 37 39 41 42 44 46 48 50 52 54 55
37 36 34 34 38 37 37 37 36 35 32 33 33 32 32 32 33 33 33 33 33 32 32 31 30 30 30 29 29 29 30 31 32 33 35 36 38 39 41 43 45 47 49 51 53 55 57 58 60
37 37 35 36 40 40 40 40 37 36 35 33 34 35 35 35 35 36 35 35 34 34 33 32 32 32 31 31 31 32 33 34 35 37 38 40 41 43 45 46 49 51 53 55 57 59 61 63 65
39 38 38 38 41 44 44 46 38 36 36 34 34 37 39 37 37 37 37 36 35 35 34 33 33 33 33 33 34 35 36 37 39 40 42 44 46 47 49 51 53 55 57 59 61 63 65 67 69
41 40 40 41 44 48 47 49 44 38 37 34 34 38 41 40 39 38 38 37 36 36 35 35 35 35 35 36 37 38 39 41 43 44 46 48 50 51 53 55 57 59 61 63 65 67 69 70 72
42 41 44 46 48 53 47 50 51 43 39 36 36 39 41 41 39 38 37 37 37 36 36 36 37 37 38 39 40 42 43 45 47 48 50 52 53 55 57 59 61 63 65 66 68 70 72 74 76
44 44 47 51 52 54 51 52 52 47 42 38 37 38 40 39 38 37 37 37 37 37 37 38 39 39 41 42 44 46 47 49 51 53 54 56 57 59 61 63 65 66 68 70 72 74 76 77 79
47 48 50 53 55 56 55 54 50 47 42 37 35 36 37 37 36 36 36 37 37 38 39 40 41 42 44 45 47 49 51 53 55 56 58 59 60 62 64 66 68 69 71 73 75 77 79 80 82
52 52 50 53 57 58 57 54 50 45 41 36 34 34 34 34 34 34 35 36 37 39 40 42 43 45 47 49 51 53 55 56 58 59 60 61 63 65 67 69 71 72 74 76 78 79 81 82 83
55 55 54 56 58 60 57 54 50 45 40 36 32 31 31 31 32 33 34 36 38 40 42 44 46 48 50 52 54 56 58 59 60 61 63 64 66 68 70 71 73 75 77 78 80 81 83 84 85
55 56 56 57 58 58 57 52 49 46 42 36 32 30 30 31 33 35 37 39 41 42 44 47 49 51 53 55 57 59 60 61 62 64 65 67 69 70 72 73 75 77 79 80 81 83 84 85 86
58 57 56 55 54 53 53 51 49 47 43 38 35 33 33 35 36 38 40 41 43 45 47 50 52 54 56 58 59 61 62 63 64 66 68 69 71 73 74 76 77 79 80 81 83 84 85 85 86
Wind_Direction
93 80 71 64 62 58 62 59 55 56 58 56 56 59 62 68 70 72 71 73 73 70 66 62 56 50 46 45 46 44 40 28 343 297 280 277 275 274 273 274 275 277 280 281 282 283 285 289 293
100 81 69 62 47 59 57 51 51 52 54 53 54 58 63 67 69 70 70 71 73 72 68 64 58 52 46 42 41 41 39 33 23 7 346 325 308 297 290 287 286 283 283 283 284 284 284 285 287
110 84 70 52 47 54 48 40 41 44 45 48 52 57 65 69 69 68 65 63 65 68 68 65 59 53 48 44 40 36 32 27 20 12 5 355 342 328 316 307 301 296 292 291 290 289 288 288 287
123 86 67 48 47 42 33 24 19 17 12 14 31 41 51 60 64 62 57 52 49 50 51 51 47 43 37 32 28 26 22 16 10 3 355 348 341 334 327 319 312 306 301 299 297 296 294 292 291
162 86 41 37 37 26 16 4 352 344 328 317 323 336 354 13 22 27 24 20 17 15 10 5 359 355 353 353 354 353 351 349 347 344 339 334 330 325 320 316 312 308 305 304 302 300 298 297 296
229 292 341 9 13 3 356 343 332 324 314 305 305 308 314 316 325 329 332 333 336 339 339 338 335 333 330 327 326 326 325 323 321 320 319 318 316 313 311 309 307 305 304 303 302 301 300 299 298
260 290 314 332 340 338 334 326 318 309 303 297 299 300 301 301 302 305 308 310 313 317 318 319 319 319 319 320 320 318 317 317 315 314 312 311 309 308 306 305 303 301 301 300 300 300 300 299 299
270 286 299 310 315 318 317 314 308 299 291 287 289 289 288 293 294 295 297 298 302 305 308 308 308 308 310 311 312 313 313 313 312 311 310 309 307 305 305 303 302 301 300 299 299 298 298 298 297
273 281 288 298 303 307 308 306 301 295 284 279 281 282 282 285 287 289 290 291 293 296 298 299 300 300 301 303 304 306 306 307 307 307 306 304 303 303 302 301 301 301 300 299 299 298 298 297 297
273 278 285 291 296 300 301 301 297 290 281 275 275 276 277 279 281 283 285 286 287 290 291 291 292 292 294 296 297 298 299 301 301 300 299 299 299 300 300 300 299 299 299 299 299 298 297 297 297
272 278 283 287 292 294 297 297 294 289 283 274 271 272 274 275 278 280 282 282 284 285 287 286 286 286 287 288 289 291 292 293 293 294 295 296 298 299 300 300 299 299 299 299 299 299 299 298 297
274 278 281 284 287 290 292 292 291 289 282 273 271 272 273 274 276 278 280 280 281 282 283 283 282 282 282 283 284 284 286 286 288 290 292 294 296 297 298 299 299 298 298 298 299 299 298 298 298
277 279 281 283 285 287 288 288 288 286 279 275 272 271 272 273 274 276 277 277 277 278 278 279 279 279 279 279 280 281 282 283 285 287 288 290 292 295 297 298 299 299 299 299 300 299 299 298 298
279 280 281 284 284 285 285 286 285 281 276 274 272 271 270 271 272 273 274 274 274 273 274 274 275 276 277 277 278 278 279 281 283 285 287 289 291 293 295 296 297 297 298 297 298 298 298 298 297
279 281 282 283 283 283 283 283 281 275 273 273 272 271 270 269 269 270 271 271 271 270 270 271 273 274 274 274 274 275 276 278 280 282 284 286 288 290 291 292 293 294 295 295 296 296 296 295 295
280 281 282 281 281 281 281 281 276 274 271 271 271 270 270 269 269 269 270 270 270 269 269 270 271 271 271 271 271 272 273 275 278 280 282 284 286 287 289 290 291 292 293 294 294 294 294 294 294
280 280 280 280 280 280 279 278 275 271 270 270 270 269 269 269 269 270 270 270 270 269 269 269 270 269 269 269 269 270 272 274 277 279 281 283 284 286 287 288 290 291 292 292 293 293 293 293 292
277 278 280 281 279 276 275 275 274 271 271 270 270 269 268 268 269 271 271 271 270 269 268 268 268 267 266 267 268 270 272 275 277 279 281 283 284 286 287 288 289 290 291 292 293 293 293 293 292
278 280 280 278 276 274 272 272 273 271 271 272 271 269 269 269 270 271 271 272 271 269 268 267 265 264 265 266 268 270 273 276 278 280 282 284 286 287 289 290 291 292 293 293 294 295 295 295 294
276 277 277 275 274 274 273 272 272 273 272 272 272 271 270 271 271 271 271 271 270 268 267 265 264 264 265 267 269 271 275 277 280 283 285 286 288 289 290 291 292 293 294 295 296 296 296 296 296
273 274 273 272 274 274 274 272 272 274 274 272 273 273 270 270 271 271 270 270 268 267 266 264 264 265 266 268 271 274 277 280 282 285 286 288 289 291 292 293 294 295 295 296 297 297 298 297 297
269 269 270 271 273 275 275 275 272 273 273 274 275 274 271 270 270 270 269 268 266 265 265 264 265 267 269 271 274 277 280 283 285 287 289 290 291 292 294 295 295 296 297 297 298 298 298 298 297
268 270 270 270 271 272 274 279 280 277 275 276 274 272 271 271 270 268 267 265 264 264 264 265 267 269 271 274 277 280 283 285 287 289 290 292 293 294 295 296 296 297 297 298 299 299 299 298 298
268 268 268 269 270 271 276 279 280 281 281 279 276 272 271 271 269 267 265 263 263 263 264 266 268 271 274 277 279 282 284 286 287 289 291 292 294 295 296 296 297 298 298 299 299 299 299 298 298
265 266 267 268 270 274 278 277 279 282 284 283 278 273 270 268 267 265 264 262 263 264 265 268 270 273 276 278 281 283 285 287 288 290 291 293 294 295 296 297 298 298 298 299 299 299 299 299 298
262 263 266 271 275 277 277 277 279 282 285 286 279 272 268 265 263 261 261 261 263 265 267 270 273 275 278 280 282 284 285 287 289 290 291 292 294 295 296 297 297 298 298 299 300 300 300 299 299
263 265 269 271 273 276 278 281 281 282 286 284 276 269 265 262 260 260 260 262 264 266 269 272 275 277 279 281 283 285 286 288 289 290 291 293 294 295 296 297 298 298 299 300 300 300 300 300 300
265 267 267 268 272 275 277 279 281 283 282 279 275 270 264 261 261 261 262 264 266 268 271 274 276 278 280 282 284 286 287 288 289 290 292 293 295 296 296 297 298 299 299 300 300 301 301 301 300
266 266 267 268 270 272 277 279 281 280 280 278 275 271 267 264 263 263 264 266 269 271 273 275 277 280 282 284 285 286 288 289 290 291 292 294 295 296 297 298 298 299 300 300 301 301 301 301 301
264 265 266 268 271 274 274 274 275 276 278 278 275 272 269 267 266 267 268 270 272 274 276 278 280 282 283 285 286 287 288 290 291 292 293 294 295 296 297 298 299 300 300 301 302 302 302 302 302
Height
5874 5874 5874 5874 5875 5873 5872 5873 5872 5872 5872 5871 5871 5871 5870 5870 5871 5873 5870 5869 5869 5869 5868 5868 5869 5869 5869 5869 5869 5869 5870 5870 5871 5872 5873 5874 5875 5876 5878 5878 5879 5880 5881 5882 5882 5882 5883 5883 5884
5875 5876 5876 5876 5875 5873 5874 5874 5873 5873 5873 5872 5872 5872 5872 5871 5871 5871 5870 5870 5870 5870 5869 5869 5869 5870 5870 5870 5870 5870 5871 5871 5872 5872 5873 5874 5875 5876 5877 5877 5878 5879 5879 5880 5880 5881 5881 5882 5882
5876 5876 5877 5877 5874 5874 5875 5875 5874 5874 5874 5873 5873 5873 5873 5873 5872 5872 5871 5871 5871 5870 5870 5870 5870 5870 5870 5870 5871 5871 5871 5872 5872 5873 5873 5874 5875 5875 5876 5876 5877 5878 5878 5878 5879 5879 5879 5880 5880
5876 5877 5877 5877 5875 5876 5875 5875 5875 5874 5874 5874 5874 5874 5873 5873 5872 5872 5872 5872 5872 5871 5871 5871 5871 5871 5871 5871 5871 5871 5871 5872 5872 5873 5873 5874 5875 5875 5875 5876 5876 5876 5877 5877 5877 5878 5878 5878 5878
5876 5877 5877 5876 5876 5876 5876 5875 5875 5874 5874 5874 5874 5874 5873 5873 5873 5872 5872 5872 5872 5872 5872 5871 5871 5871 5871 5871 5871 5871 5871 5872 5872 5872 5873 5873 5874 5874 5874 5875 5875 5875 5876 5876 5876 5876 5876 5876 5876
5876 5877 5877 5876 5876 5876 5876 5875 5875 5874 5874 5873 5873 5873 5873 5873 5873 5872 5872 5872 5872 5872 5872 5872 5871 5871 5871 5871 5871 5871 5871 5871 5871 5872 5872 5872 5873 5873 5873 5874 5874 5874 5874 5874 5874 5874 5874 5874 5874
5876 5876 5875 5875 5875 5875 5875 5875 5874 5873 5873 5873 5872 5873 5872 5872 5872 5872 5872 5872 5871 5871 5871 5871 5871 5871 5871 5871 5870 5870 5870 5870 5870 5870 5870 5871 5871 5871 5871 5872 5872 5872 5872 5872 5872 5872 5872 5872 5871
5874 5875 5874 5874 5874 5874 5874 5873 5873 5872 5872 5872 5872 5872 5871 5871 5871 5871 5871 5871 5870 5870 5870 5870 5870 5870 5870 5870 5869 5869 5869 5869 5869 5869 5869 5869 5869 5869 5869 5869 5869 5869 5869 5869 5869 5869 5869 5869 5868
5872 5873 5872 5872 5872 5872 5872 5872 5871 5871 5871 5870 5870 5870 5870 5870 5869 5869 5869 5869 5869 5869 5869 5868 5868 5868 5868 5868 5868 5867 5867 5867 5867 5867 5866 5866 5866 5866 5867 5867 5867 5866 5866 5866 5866 5866 5866 5865 5865
5870 5870 5870 5870 5870 5870 5870 5869 5869 5868 5868 5868 5868 5868 5868 5868 5868 5868 5867 5867 5867 5867 5867 5866 5866 5866 5866 5866 5865 5865 5865 5865 5865 5864 5864 5863 5863 5863 5864 5864 5864 5863 5863 5863 5862 5862 5862 5861 5861
5867 5867 5867 5867 5867 5867 5867 5866 5866 5866 5866 5866 5866 5865 5865 5865 5865 5865 5865 5865 5865 5865 5864 5864 5864 5863 5863 5863 5863 5862 5862 5862 5862 5861 5861 5860 5860 5860 5860 5860 5860 5860 5859 5859 5858 5858 5857 5857 5856
5863 5864 5864 5864 5864 5863 5863 5863 5863 5863 5863 5863 5863 5862 5862 5862 5862 5862 5862 5862 5862 5862 5861 5861 5861 5860 5860 5860 5860 5859 5859 5859 5858 5858 5858 5857 5856 5856 5856 5856 5856 5855 5855 5854 5854 5853 5853 5852 5851
5859 5859 5859 5860 5860 5859 5859 5859 5859 5859 5859 5859 5859 5859 5859 5859 5859 5859 5859 5859 5858 5858 5858 5858 5857 5857 5857 5856 5856 5856 5856 5855 5855 5854 5854 5853 5853 5852 5852 5852 5851 5851 5850 5849 5849 5848 5847 5846 5845
5855 5854 5854 5855 5855 5855 5855 5855 5855 5856 5855 5855 5855 5855 5855 5855 5855 5855 5855 5855 5855 5855 5854 5854 5854 5853 5853 5853 5852 5852 5852 5851 5851 5851 5850 5849 5849 5848 5847 5847 5846 5846 5845 5844 5843 5842 5841 5840 5839
5849 5849 5850 5850 5849 5849 5849 5850 5850 5851 5850 5850 5850 5851 5851 5851 5851 5851 5851 5851 5850 5850 5850 5850 5850 5849 5849 5849 5848 5848 5848 5847 5847 5846 5846 5845 5844 5843 5843 5842 5841 5840 5839 5838 5837 5836 5835 5833 5832
5843 5844 5844 5844 5843 5843 5844 5845 5845 5845 5844 5845 5845 5845 5846 5846 5846 5846 5846 5846 5846 5845 5845 5845 5845 5845 5844 5844 5844 5844 5843 5843 5842 5842 5841 5840 5839 5838 5837 5836 5835 5834 5833 5832 5830 5829 5827 5826 5824
5837 5837 5837 5836 5837 5837 5836 5837 5838 5838 5838 5839 5840 5840 5840 5840 5840 5840 5840 5840 5840 5840 5840 5840 5840 5839 5839 5839 5839 5839 5838 5838 5837 5836 5836 5835 5834 5833 5832 5831 5829 5828 5826 5825 5823 5821 5819 5817 5815
5830 5829 5830 5829 5829 5830 5829 5829 5830 5832 5832 5833 5833 5834 5834 5834 5835 5834 5834 5834 5834 5834 5834 5834 5834 5834 5834 5833 5833 5833 5833 5832 5831 5831 5830 5829 5828 5826 5825 5823 5822 5820 5818 5816 5814 5812 5810 5807 5805
5822 5822 5823 5822 5820 5821 5821 5822 5822 5824 5825 5826 5827 5827 5827 5828 5828 5828 5827 5827 5827 5827 5828 5828 5828 5828 5828 5828 5827 5827 5826 5826 5825 5824 5823 5822 5820 5819 5817 5815 5813 5811 5809 5807 5804 5802 5799 5797 5794
5815 5815 5815 5815 5812 5812 5812 5813 5815 5816 5819 5819 5819 5820 5820 5821 5821 5820 5820 5820 5820 5820 5820 5821 5821 5821 5821 5821 5821 5820 5819 5819 5818 5817 5815 5814 5812 5810 5808 5806 5804 5801 5799 5796 5793 5790 5787 5784 5781
5807 5807 5808 5807 5803 5804 5804 5804 5808 5809 5810 5812 5813 5812 5812 5813 5813 5812 5812 5812 5812 5812 5813 5813 5813 5814 5814 5814 5813 5813 5812 5811 5810 5808 5807 5805 5803 5801 5798 5796 5793 5790 5787 5784 5780 5777 5774 5770 5766
5798 5799 5799 5799 5796 5794 5795 5791 5800 5803 5803 5805 5806 5804 5803 5804 5804 5803 5803 5803 5804 5804 5804 5805 5805 5806 5806 5806 5805 5805 5804 5802 5801 5799 5797 5795 5793 5790 5787 5784 5781 5778 5775 5771 5767 5763 5759 5755 5750
5789 5790 5791 5789 5787 5784 5785 5783 5786 5793 5794 5797 5797 5794 5792 5794 5795 5794 5794 5795 5795 5795 5796 5797 5797 5797 5797 5797 5796 5796 5794 5793 5791 5789 5787 5785 5782 5779 5775 5772 5769 5765 5761 5757 5752 5748 5743 5738 5734
5780 5781 5780 5778 5776 5773 5779 5777 5771 5780 5784 5787 5787 5785 5783 5784 5784 5785 5785 5786 5786 5787 5787 5788 5788 5788 5788 5788 5787 5786 5785 5783 5781 5779 5776 5773 5770 5767 5763 5759 5755 5751 5746 5741 5737 5732 5726 5721 5715
5771 5771 5769 5766 5765 5764 5768 5765 5764 5769 5773 5775 5775 5774 5773 5774 5775 5775 5776 5777 5777 5778 5779 5779 5779 5779 5779 5778 5777 5776 5774 5772 5770 5767 5764 5761 5757 5754 5750 5745 5741 5736 5731 5726 5720 5714 5708 5702 5696
5759 5759 5759 5758 5755 5754 5754 5752 5757 5759 5761 5764 5764 5763 5763 5764 5765 5766 5767 5768 5768 5769 5769 5769 5769 5769 5769 5768 5766 5765 5763 5760 5758 5755 5751 5748 5744 5740 5735 5731 5726 5720 5715 5709 5703 5696 5689 5682 5675
5747 5748 5751 5748 5744 5742 5742 5743 5746 5748 5751 5752 5752 5752 5753 5754 5755 5757 5758 5759 5759 5759 5760 5760 5759 5759 5758 5756 5754 5752 5750 5747 5744 5741 5737 5733 5729 5725 5720 5715 5709 5703 5697 5691 5684 5677 5669 5661 5654
5736 5737 5738 5735 5734 5732 5731 5733 5735 5738 5740 5741 5742 5743 5744 5745 5747 5748 5749 5749 5749 5749 5749 5749 5748 5747 5746 5744 5742 5739 5736 5733 5730 5726 5723 5718 5714 5709 5704 5698 5692 5686 5679 5672 5664 5656 5648 5640 5632
5724 5724 5723 5723 5723 5722 5721 5725 5726 5726 5728 5731 5733 5734 5735 5736 5737 5738 5738 5739 5739 5739 5738 5737 5736 5735 5733 5730 5728 5725 5722 5718 5715 5711 5707 5702 5697 5692 5686 5680 5674 5667 5660 5652 5644 5636 5628 5619 5610
5707 5709 5710 5712 5713 5712 5711 5715 5714 5716 5717 5720 5723 5724 5724 5725 5726 5727 5727 5728 5727 5727 5726 5725 5723 5721 5719 5716 5713 5709 5706 5703 5699 5695 5691 5686 5680 5674 5668 5662 5655 5648 5640 5632 5624 5616 5607 5598 5589